Theta_e
313 313 313 314 314 314 313 313 313 313 313 312 312 312 311 310 311 312 312 312 313 314 315 315 315 315 309 301 295 305 332 329 325 318 310 305 302 305 302 307 309 305 308 311 312 312 312
312 312 312 312 312 312 312 312 311 313 313 313 313 313 312 312 311 310 312 313 312 313 313 314 314 315 304 290 302 308 307 306 306 314 312 307 304 306 300 301 301 307 308 309 311 312 312
311 311 311 311 311 310 311 311 311 311 312 313 313 313 313 313 312 312 311 311 312 312 312 312 313 310 302 298 307 306 303 302 304 305 307 312 310 306 302 299 302 301 298 301 304 307 307
309 309 310 309 310 309 309 310 311 311 311 312 313 312 312 312 313 313 312 312 311 310 311 312 313 307 297 309 310 307 307 303 302 303 306 310 313 305 299 300 301 297 296 293 301 305 307
308 308 308 308 308 308 308 309 310 311 311 311 312 312 311 311 311 313 313 312 311 311 310 311 305 303 294 309 304 307 304 299 301 301 303 309 307 300 299 296 291 292 290 292 296 302 302
307 307 308 308 307 307 308 309 309 309 310 311 311 311 311 311 311 312 312 311 310 308 307 307 306 298 299 297 302 303 303 303 301 300 299 300 299 295 293 291 287 289 289 293 293 299 300
307 307 307 307 307 306 308 309 309 309 310 310 311 311 311 311 311 311 309 299 293 295 300 296 296 294 299 304 307 304 304 300 301 299 291 296 291 292 294 297 297 296 294 293 297 301 299
307 307 307 307 306 307 308 308 308 309 309 310 310 310 310 310 310 311 305 293 297 299 291 299 298 300 304 305 298 302 305 297 296 290 295 294 290 296 301 299 297 296 293 293 297 301 298
308 307 307 306 307 307 307 308 308 309 310 310 310 310 310 310 310 302 295 297 303 302 290 294 298 297 298 301 297 298 303 300 295 292 292 290 294 299 300 299 296 295 293 293 294 299 300
307 306 307 307 307 307 307 307 308 309 309 310 310 310 310 310 301 296 295 300 301 302 284 288 294 297 299 300 295 302 304 302 297 291 293 292 297 297 297 297 296 290 297 297 296 293 289
307 307 307 307 307 307 307 307 308 308 309 310 310 309 309 309 301 297 299 301 305 299 273 290 294 304 301 296 299 298 304 301 295 293 293 290 293 293 294 295 297 294 300 298 297 293 290
306 306 306 307 307 307 308 308 308 308 309 309 309 309 309 303 299 300 303 302 298 284 275 287 293 291 291 297 297 300 300 301 301 296 294 293 299 297 296 300 299 300 295 295 294 291 286
305 305 306 306 307 307 308 308 308 309 309 309 309 309 307 305 294 300 300 294 283 277 289 285 287 290 290 289 294 295 295 293 291 288 288 292 293 297 298 294 296 295 289 282 281 283 284
305 306 307 308 308 308 308 308 309 309 309 309 308 307 305 304 300 302 299 286 277 283 284 291 289 289 286 289 288 290 292 291 295 293 290 287 285 294 298 295 293 293 292 285 280 281 285
305 306 306 307 308 308 308 308 308 308 308 308 306 297 298 298 302 299 294 276 278 284 288 286 287 285 285 288 288 288 288 290 295 295 287 287 287 297 298 298 296 292 290 295 287 288 285
306 306 306 307 308 308 308 308 309 309 308 306 299 296 293 299 302 300 288 280 284 290 289 288 282 286 282 284 285 285 287 293 294 297 295 291 285 295 297 298 297 292 294 286 286 281 281
306 306 306 307 307 308 308 308 308 308 307 305 293 289 294 301 304 293 283 282 286 291 290 287 285 284 284 283 286 285 287 291 295 294 296 291 288 291 295 292 291 289 290 288 289 287 282
306 306 306 307 307 307 307 308 308 308 305 298 289 283 294 304 289 288 284 287 291 289 291 289 289 287 286 286 285 284 285 289 296 295 290 292 288 286 290 294 298 295 292 291 287 285 288
307 306 307 307 308 307 307 307 308 307 305 298 287 285 296 297 282 284 287 288 289 288 288 288 287 290 290 287 283 286 289 295 295 293 290 293 287 284 285 290 293 292 293 294 290 289 287
307 308 308 308 308 307 307 307 308 307 306 294 289 282 285 292 289 286 284 284 285 291 288 289 288 290 288 286 289 286 287 291 294 293 299 294 287 287 285 288 292 289 293 293 292 288 289
306 307 308 308 308 308 308 308 308 307 305 294 286 282 287 279 281 283 285 285 284 285 288 289 286 287 286 284 286 286 289 290 293 295 293 288 283 290 293 293 293 293 293 293 292 293 291
305 306 307 307 307 307 308 308 308 307 303 291 289 287 290 288 285 283 283 285 285 287 288 286 286 288 289 285 287 286 289 290 288 291 291 288 282 288 290 294 293 291 293 294 295 295 295
305 305 306 306 306 306 307 308 308 307 300 289 292 297 291 287 282 279 281 286 285 288 290 291 290 288 286 289 293 294 294 293 293 290 288 286 285 284 284 293 291 287 292 293 295 298 298
305 305 305 305 304 304 305 307 307 307 302 295 292 296 288 283 285 285 286 287 286 287 286 290 290 285 290 296 296 295 293 292 294 292 293 286 284 284 282 288 280 292 297 297 296 298 299
304 304 304 304 303 304 304 306 307 308 307 299 295 295 291 283 287 286 288 287 287 288 286 288 290 292 292 290 287 285 287 288 289 292 292 291 285 282 282 283 289 293 297 295 293 294 300
304 304 304 305 304 304 304 305 307 307 307 298 293 294 294 286 284 289 288 288 286 286 285 288 292 295 291 287 284 280 279 284 285 290 296 294 289 284 285 280 281 291 299 301 300 292 301
304 304 304 304 304 305 305 305 306 307 307 300 300 296 297 289 292 292 288 288 292 290 286 287 291 290 292 286 276 279 282 288 282 284 285 286 284 282 283 282 290 296 300 304 291 291 302
303 304 304 304 304 305 305 306 306 307 307 303 300 298 297 292 293 295 295 291 292 291 287 288 289 290 290 282 283 285 285 287 285 287 286 285 285 284 286 285 285 299 298 293 296 300 302
303 303 304 304 305 305 306 306 307 308 307 306 297 299 302 295 292 297 297 298 297 296 292 290 288 290 290 287 287 289 286 288 286 282 290 285 289 287 290 292 297 299 296 300 300 298 299
Wind_Speed
18 18 19 19 18 15 15 15 16 16 16 16 16 17 18 18 18 18 18 18 19 18 16 15 13 13 6 5 11 12 11 5 8 10 12 12 6 7 9 5 5 8 19 17 14 12 14
19 18 18 18 18 18 18 18 19 18 18 18 17 17 18 18 18 19 19 17 16 17 17 16 14 11 3 14 7 14 18 8 9 2 8 9 9 9 4 7 9 6 10 13 13 18 17
20 20 20 20 18 19 19 20 19 20 19 19 18 18 19 19 19 19 19 19 18 17 18 17 16 10 16 25 8 9 9 4 4 12 13 14 13 7 7 6 5 6 12 14 16 12 22
18 18 18 18 18 18 19 19 19 19 19 19 18 18 20 21 21 21 22 20 20 22 20 17 15 12 16 8 14 22 20 21 13 8 8 9 14 13 3 2 7 5 2 8 6 12 16
17 17 17 17 17 17 18 19 18 19 20 20 18 17 19 21 22 23 23 23 28 27 22 16 9 8 15 8 10 19 14 13 11 11 5 7 6 7 4 8 5 2 14 14 18 10 7
19 19 19 19 19 19 19 19 19 19 20 20 19 18 18 20 21 21 21 26 26 13 3 7 10 2 9 9 7 8 11 20 7 8 5 8 5 6 5 7 14 11 7 13 23 3 11
18 19 18 19 19 20 19 20 20 20 21 21 21 18 17 18 20 19 14 8 6 2 1 8 6 8 6 13 10 5 6 12 9 4 10 10 9 20 21 21 13 7 15 16 16 3 8
18 18 19 20 20 19 20 21 21 21 22 22 22 21 21 18 17 16 5 2 3 3 13 14 21 24 28 12 10 7 14 9 10 16 14 8 31 15 13 14 15 11 10 20 15 8 7
18 18 18 18 18 19 20 21 21 21 21 21 20 20 20 20 18 5 3 6 5 9 7 12 14 11 14 16 14 12 8 7 6 14 24 28 8 19 21 19 18 18 19 16 20 1 6
19 18 18 19 18 18 20 21 22 22 22 20 20 19 18 18 7 3 4 1 4 7 5 10 8 8 6 7 16 19 9 7 7 18 17 18 22 21 21 23 17 18 17 19 19 6 9
19 19 19 18 18 18 20 21 22 23 22 20 19 19 17 11 7 6 5 8 12 3 6 3 3 4 5 13 1 15 20 8 11 9 10 11 19 24 18 27 19 19 13 11 11 9 5
20 20 20 20 21 21 20 20 22 22 21 21 19 19 16 8 2 7 6 9 1 2 10 6 4 12 12 13 16 6 14 12 8 4 9 10 10 24 33 14 19 6 3 2 6 1 11
21 21 20 20 21 21 20 20 21 22 21 22 22 21 14 7 5 2 3 4 3 6 4 2 11 17 11 16 6 11 10 18 19 13 15 8 17 6 11 19 6 7 8 2 3 4 7
21 21 21 20 21 21 21 22 22 21 21 21 20 20 7 7 3 4 1 1 9 6 11 16 17 15 7 20 10 16 12 16 24 17 12 14 11 24 12 13 18 18 14 8 8 5 5
21 21 22 23 22 22 22 22 22 21 20 19 17 3 3 5 5 3 2 3 4 4 7 13 16 7 9 15 9 13 8 13 11 19 8 13 15 4 22 7 17 17 18 14 3 2 3
20 20 21 22 21 23 22 22 21 21 20 19 5 4 4 4 6 3 2 5 4 4 9 12 7 6 10 13 10 13 6 18 8 7 5 3 2 7 17 17 19 11 10 9 4 6 4
20 20 21 20 21 22 23 23 22 20 20 15 3 4 4 1 3 2 3 4 7 9 10 4 5 7 13 15 4 8 7 8 17 17 11 3 1 3 8 18 22 8 9 5 8 6 7
21 21 21 21 21 21 22 22 22 20 17 6 3 4 3 1 1 1 2 3 7 9 8 9 6 9 12 11 7 7 11 12 12 16 8 6 6 6 14 3 19 18 18 13 9 8 6
20 21 20 20 20 21 21 22 21 19 11 3 4 3 3 6 2 2 3 6 6 7 5 3 5 3 9 8 6 3 6 10 17 14 13 8 5 8 7 4 4 23 19 21 4 4 6
21 21 20 20 20 21 21 21 21 19 11 2 2 4 5 2 1 3 5 5 4 7 11 6 6 6 10 10 9 7 11 8 14 18 14 4 5 12 17 7 5 6 20 12 14 10 9
22 23 22 21 20 20 21 21 21 17 9 3 3 3 2 4 4 6 3 4 7 8 4 5 3 5 7 6 7 10 14 13 12 13 5 3 5 7 16 21 9 2 9 21 20 18 14
21 23 23 22 21 21 20 19 19 14 7 3 1 2 2 4 5 6 4 2 11 10 4 7 3 9 6 7 7 7 13 6 4 7 8 5 5 8 7 16 23 18 5 18 19 15 11
21 22 23 22 22 20 20 18 17 16 5 1 3 2 1 2 4 3 3 7 11 12 7 10 14 8 8 11 7 9 9 8 9 7 6 4 4 8 7 11 9 16 28 12 9 16 17
21 21 22 22 23 21 19 20 16 14 3 3 3 2 2 4 2 5 13 13 13 12 11 18 11 4 5 7 12 6 13 13 12 13 8 8 1 3 7 3 9 18 10 16 11 8 11
23 22 22 23 23 21 19 18 19 13 8 2 2 2 2 4 5 10 10 10 10 11 6 10 12 6 5 4 3 5 2 2 11 15 13 15 5 3 3 4 5 4 1 10 10 13 9
24 23 22 21 23 22 20 18 18 15 10 2 3 3 2 3 4 6 6 8 8 8 6 5 7 6 2 4 3 4 4 1 1 1 9 9 12 4 2 4 7 4 16 16 1 9 7
23 24 23 23 24 24 22 19 18 16 11 2 3 4 3 4 4 4 4 4 4 4 5 6 7 7 3 2 1 3 3 2 3 4 3 4 3 7 3 4 3 19 21 11 9 5 21
24 23 23 23 24 25 22 20 18 16 12 1 3 5 3 4 10 9 4 6 5 5 3 5 6 0 3 5 2 3 2 0 3 2 3 3 6 4 4 5 3 21 8 10 9 12 14
25 24 24 23 23 23 21 20 17 14 11 1 3 2 2 5 8 9 17 19 17 20 3 2 3 1 2 2 2 3 4 2 3 1 2 1 2 3 3 2 4 7 6 7 7 11 12
Wind_Direction
12 10 8 6 3 354 349 346 343 337 332 328 327 329 328 322 319 319 316 314 311 310 304 301 305 316 345 250 236 255 275 29 66 160 182 192 175 178 214 204 177 208 243 244 265 278 271
11 9 5 2 2 2 358 351 347 343 340 335 324 321 320 321 321 315 311 305 298 297 299 299 300 304 227 249 254 266 276 293 243 200 175 178 201 203 235 231 236 240 255 267 259 262 267
5 2 360 359 359 357 353 348 343 339 336 333 333 330 322 316 315 313 308 300 300 296 296 292 294 288 253 242 284 311 319 235 200 217 219 204 227 206 183 316 265 246 275 272 266 258 261
2 357 354 352 350 352 346 342 339 336 333 329 329 329 326 325 319 310 308 305 298 289 283 277 279 269 258 272 245 260 255 274 251 272 243 232 213 232 194 306 341 352 284 266 245 237 257
357 355 353 349 346 346 342 338 336 334 333 329 325 322 323 322 318 315 308 306 299 286 274 261 262 232 272 278 224 242 213 224 237 226 224 255 145 185 126 212 295 247 259 278 284 236 262
353 351 351 347 345 342 340 336 336 331 328 327 325 323 320 318 319 315 311 313 299 302 232 193 226 224 246 230 220 227 184 204 207 188 192 186 201 182 169 159 209 215 235 248 252 251 222
352 350 348 347 343 342 336 335 334 331 329 327 325 323 320 318 318 317 326 338 6 16 208 212 208 256 256 18 294 217 161 165 201 198 176 174 196 211 202 210 216 194 226 245 258 214 248
351 347 345 346 345 340 337 337 333 330 327 324 322 322 322 319 313 314 343 249 256 322 297 265 253 241 263 285 298 290 134 146 178 201 168 172 228 204 200 210 220 231 243 256 286 260 231
350 351 347 348 344 337 337 335 332 329 326 324 319 317 319 319 319 334 178 232 293 330 271 278 227 230 214 195 223 248 199 155 171 189 193 200 212 205 201 204 208 223 228 248 250 354 256
355 354 351 347 339 337 338 334 331 329 328 324 320 316 318 323 325 316 259 83 302 302 287 272 218 249 200 229 225 225 217 180 203 195 202 233 222 189 201 213 203 229 219 241 254 265 262
355 352 353 347 343 341 335 332 329 327 325 321 315 314 314 324 291 276 272 340 320 185 297 233 175 153 245 185 116 217 191 210 197 163 179 210 190 224 220 213 199 233 219 232 247 253 263
357 355 351 346 346 340 331 328 325 323 317 312 314 312 315 302 224 249 326 300 296 209 238 293 72 349 3 218 244 303 171 203 172 234 235 224 205 200 218 201 201 173 200 278 265 287 261
356 353 350 346 343 337 331 327 323 321 317 317 314 309 301 273 243 125 351 355 188 217 268 206 0 344 347 337 234 245 247 187 183 191 212 198 224 216 168 211 171 172 112 267 287 216 221
354 351 349 347 341 338 335 334 330 324 321 318 315 313 283 234 214 245 180 100 227 254 260 335 357 334 22 10 338 332 229 204 214 196 178 199 214 209 183 196 194 205 177 164 201 196 196
351 349 348 348 342 342 341 339 338 336 327 322 321 321 289 266 202 128 207 220 237 331 353 350 342 0 349 350 335 351 335 237 229 208 181 197 232 169 190 155 172 199 206 183 20 316 82
348 346 347 344 343 344 342 340 340 338 331 332 329 321 276 317 137 133 179 230 279 308 343 348 325 325 334 337 346 354 304 30 327 275 80 284 190 205 201 190 200 163 147 185 194 203 198
344 344 346 344 343 345 344 342 342 337 335 338 23 352 274 105 130 108 262 232 311 297 309 304 330 304 304 306 348 336 305 320 25 349 341 239 134 286 140 201 187 161 210 152 154 216 165
343 341 344 343 343 345 343 342 342 344 337 36 15 329 298 352 115 342 252 279 323 288 293 278 243 268 277 288 278 276 281 322 16 0 5 282 214 219 221 286 191 194 203 209 170 201 227
342 339 341 340 342 344 343 343 342 344 354 330 347 277 326 99 24 339 266 271 255 286 280 286 280 232 283 296 295 234 271 311 315 5 346 327 286 250 337 340 143 192 196 211 138 96 192
340 335 337 338 341 343 344 343 341 338 343 75 18 337 322 35 195 351 328 290 283 277 296 245 245 249 281 292 263 248 278 291 308 319 339 324 279 238 219 222 155 176 200 182 187 210 217
341 334 334 336 338 340 342 344 345 346 357 87 40 283 330 308 331 311 248 289 319 319 298 303 307 237 266 282 310 242 250 271 288 319 317 37 269 292 271 253 275 192 184 202 206 206 194
338 335 332 334 338 339 338 342 344 346 10 66 49 330 310 278 296 306 309 282 312 320 287 302 231 295 298 251 259 295 307 291 297 295 347 345 280 327 263 236 239 249 250 203 209 205 217
333 335 332 332 335 338 336 338 342 349 57 38 297 286 215 254 297 299 268 328 300 302 263 264 290 290 292 280 299 226 243 256 248 239 282 285 327 360 280 217 231 254 240 228 210 204 196
332 337 336 334 333 335 333 331 335 341 119 174 246 273 267 272 276 276 300 293 291 302 283 287 291 250 258 338 317 267 251 247 236 241 207 230 167 220 277 226 198 247 214 220 213 220 213
332 334 336 336 333 330 331 325 326 331 339 187 237 252 270 286 303 295 308 304 302 296 270 283 284 255 293 273 255 264 250 210 238 232 226 223 160 255 241 238 275 272 235 181 168 246 212
330 332 333 332 330 327 328 324 319 320 320 146 227 195 223 278 242 279 288 275 294 312 308 276 301 291 239 196 195 224 233 326 218 33 347 240 187 205 309 245 205 30 323 320 202 228 343
329 330 332 331 325 321 322 321 318 315 317 176 251 191 258 261 261 242 281 288 280 280 280 291 330 333 357 348 78 234 234 143 213 99 354 107 140 232 292 288 323 340 324 302 165 258 321
329 330 330 327 323 325 325 316 315 312 316 313 263 197 234 254 277 258 219 218 260 252 272 297 332 6 312 17 321 308 296 24 70 75 102 32 319 179 192 246 249 353 16 49 310 310 310
329 329 329 325 323 323 321 319 317 307 300 271 254 170 175 251 261 263 259 255 241 245 248 253 244 271 253 310 293 313 337 19 202 152 133 213 281 300 279 58 48 356 20 326 306 306 311